Location: Roland
(31.1349°N, 85.4372°W)
Time: 18:56:56
(UTC+00:00)

Vanguard 2 Rocket - Pass Details

Date: 17 April 2021
Orbit: 554 x 3326 km, 32.9° (Epoch: 13 May)

Event Time Altitude Azimuth Distance (km) Brightness Sun altitude
Rises 01:01:37 0° 286° (WNW) 7,154 13.7 -11.2°
Reaches altitude 10° 01:06:49 10° 285° (WNW) 5,913 12.5 -12.3°
Maximum altitude 01:23:49 70° 206° (SSW) 2,225 8.8 -15.6°
Enters shadow 01:31:20 22° 128° (SE) 3,000 8.9 -17.1°
